Theta_e
352 347 347 344 345 343 344 344 345 351 352 351 351 352 351 354 352 349 349 346 343 341 339 338 338 338 338 338 341 341 338 338 338 339 341 343 344 344 345 345 346 347 347
357 346 348 345 343 343 345 347 348 350 351 352 351 354 354 354 352 350 347 344 342 339 336 334 332 332 333 334 336 336 335 335 335 335 336 335 336 338 341 342 342 344 345
357 357 344 343 342 349 351 352 353 353 352 353 353 351 349 350 347 349 346 343 341 336 332 330 330 330 330 331 331 331 331 331 332 332 333 335 333 333 334 335 338 341 341
354 352 344 343 342 350 349 348 349 351 354 350 347 346 348 349 347 346 345 341 338 333 334 335 328 331 328 330 330 331 330 330 330 330 332 331 331 331 331 332 333 334 337
350 348 342 342 352 347 348 355 353 353 349 345 341 342 345 345 347 343 344 341 337 333 329 333 336 334 324 327 327 330 330 330 330 331 331 330 330 330 330 330 330 331 332
349 349 344 352 352 350 353 356 353 348 343 339 338 338 345 343 345 343 341 338 334 333 329 331 327 327 326 327 328 328 330 330 330 330 329 328 328 328 329 330 330 330 330
349 351 346 356 356 348 350 351 348 343 338 338 336 337 340 343 345 342 341 337 334 328 328 326 328 327 327 333 330 328 330 329 329 329 327 326 326 327 328 329 329 329 330
352 350 356 352 347 342 342 342 340 338 338 337 330 331 328 330 333 338 336 332 329 325 325 328 327 330 330 328 330 329 328 327 328 327 326 325 324 325 325 325 326 327 328
355 355 353 349 344 341 336 334 335 333 332 336 331 327 321 317 318 323 327 323 329 324 327 328 328 329 330 330 330 329 325 324 325 326 325 324 325 324 324 324 324 324 325
352 351 348 343 341 341 338 336 335 333 332 329 329 326 327 323 313 311 321 323 327 328 333 326 327 329 329 328 328 325 324 323 323 323 323 324 324 324 324 323 323 323 324
347 346 343 341 339 337 334 328 329 330 328 325 322 322 324 321 326 317 311 315 322 324 324 326 327 326 328 329 326 327 325 321 321 320 320 322 323 323 323 323 322 323 323
341 341 340 338 339 338 335 332 329 329 328 327 325 323 318 316 315 315 313 318 317 321 324 326 326 325 326 326 326 325 326 321 319 319 319 319 321 320 321 321 322 321 322
337 334 337 337 335 334 331 330 329 328 327 324 325 320 321 319 319 319 318 316 314 319 321 324 323 325 324 325 325 325 326 322 319 319 318 318 319 318 318 318 318 319 319
333 336 334 333 329 329 328 328 326 325 326 324 324 323 321 321 322 321 317 315 312 315 318 324 323 324 324 324 325 325 323 321 321 319 318 318 318 318 316 315 315 316 316
333 334 331 328 327 327 327 328 325 325 324 324 324 324 323 322 324 321 320 319 315 310 311 318 317 329 324 324 325 324 324 324 322 321 318 317 317 318 316 314 314 314 313
333 331 328 327 326 325 326 326 324 324 323 322 324 323 323 322 323 322 321 320 319 315 311 317 318 325 327 323 324 326 324 323 323 319 317 316 316 316 316 315 313 312 309
331 327 326 325 324 324 324 325 324 322 322 323 324 321 321 323 320 320 320 320 319 318 313 316 321 324 328 329 324 324 321 324 320 317 317 316 315 314 314 314 313 310 308
328 325 324 323 321 322 323 322 321 322 321 320 322 320 319 318 321 323 319 322 320 321 315 315 320 319 323 326 328 323 321 317 318 318 316 315 316 314 312 312 312 310 307
325 324 322 321 320 321 321 322 322 321 322 321 321 320 318 319 318 318 318 318 317 317 317 313 313 317 318 321 319 319 319 318 315 318 315 316 316 315 313 313 312 309 307
323 322 321 320 320 321 321 321 321 321 321 323 322 320 319 316 314 314 314 315 314 313 314 311 311 312 314 317 314 311 309 312 314 313 316 313 313 314 314 313 311 310 306
320 320 319 319 319 316 310 314 321 320 322 320 321 318 315 312 308 307 308 309 310 309 308 307 307 306 307 306 306 307 305 309 311 311 311 312 313 312 313 313 312 307 305
319 319 318 317 316 310 298 301 310 320 320 318 316 317 314 310 309 308 306 307 308 308 306 305 303 302 304 303 304 303 303 302 299 309 309 308 310 308 310 309 305 304 303
319 317 316 315 312 309 297 297 302 320 317 316 315 314 312 309 301 300 301 306 310 306 305 305 301 301 300 302 303 302 303 302 302 307 306 303 307 306 309 308 305 303 302
316 316 315 313 310 303 296 296 298 316 315 313 312 311 310 306 296 295 300 305 306 306 305 301 302 302 304 305 305 304 303 303 304 303 306 298 305 302 305 307 305 303 302
314 314 314 313 310 306 296 296 301 315 313 311 310 304 302 300 291 292 299 301 301 302 301 303 300 298 296 296 298 301 300 298 297 300 304 300 300 300 301 303 305 303 302
313 312 311 311 306 306 294 295 298 312 310 310 310 299 292 293 291 291 297 298 296 297 300 302 305 306 304 306 301 303 303 298 299 297 302 297 298 297 294 301 301 303 303
Wind_Speed
6 6 5 5 6 7 6 6 4 3 5 6 4 4 7 6 7 5 5 13 13 12 12 13 16 15 15 16 16 15 16 16 16 17 17 18 17 17 17 17 15 15 15
5 6 5 6 5 4 6 4 5 4 6 2 1 4 5 6 8 7 7 7 11 11 10 10 11 13 15 16 17 16 16 17 17 17 16 17 18 20 19 18 19 18 18
7 7 6 7 6 5 4 2 2 6 5 1 4 4 5 7 6 7 7 7 5 10 7 8 8 11 12 14 16 17 18 18 18 17 17 17 17 19 19 19 19 18 18
8 6 6 5 6 4 6 7 6 2 1 3 2 4 5 5 3 3 4 5 6 8 0 6 6 11 8 12 15 17 18 18 18 19 18 18 18 19 19 19 19 19 19
8 6 5 6 3 5 4 4 4 3 3 1 3 3 6 6 7 6 4 7 5 7 7 8 9 16 2 8 11 15 16 17 18 18 18 19 19 20 19 20 19 19 19
8 6 5 4 2 4 3 6 0 6 5 5 4 5 6 7 7 6 5 7 8 6 8 9 8 7 3 7 8 12 15 19 19 20 20 21 21 20 20 17 18 19 19
8 6 4 7 8 8 6 5 4 4 4 6 4 4 3 6 5 5 5 5 6 8 9 9 5 6 7 12 6 12 15 19 20 20 19 19 20 21 22 22 19 18 18
8 7 9 9 9 8 8 7 5 3 3 5 3 7 4 7 7 4 3 5 5 7 8 8 7 7 5 8 9 10 18 20 19 18 19 19 20 19 19 21 21 21 20
8 9 10 9 8 5 6 6 4 2 2 4 4 4 4 4 8 3 4 4 5 5 5 8 7 8 7 7 7 10 14 15 18 18 19 19 19 19 18 19 20 21 22
10 9 9 9 8 5 7 5 3 3 2 1 2 2 2 2 4 7 6 7 6 4 4 6 5 7 9 8 11 8 12 10 15 17 17 18 19 20 19 19 19 20 21
8 9 9 8 7 6 6 5 3 3 3 2 2 2 1 4 4 5 9 8 7 8 6 4 6 6 7 8 9 8 9 7 11 12 16 17 19 19 19 19 19 20 20
6 8 9 9 8 8 7 6 5 6 6 5 4 4 4 3 5 5 8 9 9 8 5 3 5 7 8 9 10 9 15 4 7 9 12 14 16 19 18 18 18 19 19
8 9 8 7 5 7 6 7 6 7 6 4 3 3 2 4 4 5 7 8 9 9 3 4 6 5 7 8 9 9 16 4 7 8 8 12 13 15 17 17 17 17 17
9 9 8 9 8 7 8 5 5 5 4 4 4 4 4 3 4 6 6 7 8 7 8 5 8 6 7 10 7 10 13 8 9 8 8 11 11 13 14 14 15 16 15
9 10 10 9 8 8 7 5 6 4 2 3 3 3 5 3 4 3 4 4 6 9 9 10 9 9 9 10 9 12 13 14 19 10 6 10 10 10 12 10 11 11 13
11 10 10 9 8 7 6 4 4 3 3 3 4 5 5 5 5 2 3 5 6 6 8 12 11 11 10 10 11 12 14 19 11 4 8 8 9 10 12 8 7 6 7
11 11 9 8 8 7 6 5 4 4 4 4 4 4 3 4 6 6 7 6 6 6 9 11 11 12 13 9 11 10 13 13 10 7 8 12 12 10 13 9 6 2 6
11 10 9 8 7 7 5 4 4 4 3 5 3 5 6 6 8 7 7 8 8 7 8 12 11 11 11 11 9 12 12 12 12 12 14 17 10 11 11 10 7 4 3
11 9 8 7 7 6 5 5 5 4 5 4 4 6 6 6 6 7 8 6 8 9 10 10 11 10 10 9 12 12 11 13 12 16 14 11 7 12 12 11 4 5 1
10 9 8 8 7 6 6 5 4 5 3 6 6 6 7 8 9 9 9 8 10 10 10 11 11 11 11 12 11 12 12 11 11 13 12 15 16 18 11 15 8 3 4
10 10 9 8 8 8 8 10 9 5 5 5 7 7 7 7 3 6 8 10 10 9 10 11 11 12 12 13 13 12 12 12 11 11 11 11 10 9 11 8 5 11 11
11 10 10 10 10 9 11 11 9 6 7 8 7 7 4 12 10 7 8 11 10 9 11 10 9 12 13 13 13 13 13 13 11 10 12 10 10 10 11 6 6 10 10
11 11 10 11 11 10 13 12 12 4 6 6 6 7 7 9 13 13 16 17 9 11 10 7 13 12 14 13 13 14 14 12 12 12 14 11 11 11 12 10 6 8 11
11 9 10 10 10 10 13 13 13 2 7 6 8 9 8 10 12 13 13 12 12 12 11 9 10 11 11 11 10 12 12 13 12 11 9 7 12 12 12 12 2 10 12
10 9 9 9 10 11 13 13 11 3 4 4 6 7 9 9 11 15 13 13 13 11 11 12 13 16 15 15 16 9 8 10 11 10 7 10 11 11 10 10 8 19 15
10 9 10 10 13 11 15 15 17 5 3 2 8 10 16 11 9 12 12 12 12 13 14 14 11 9 2 7 12 8 8 9 10 8 6 8 9 9 7 7 12 10 11
Wind_Direction
171 195 194 212 187 200 176 215 251 210 226 212 255 6 349 314 316 345 63 99 98 85 57 26 12 5 5 6 3 5 8 3 3 1 359 355 346 334 322 313 312 311 306
156 201 183 232 208 239 228 211 211 224 224 0 101 30 332 320 350 1 352 112 106 92 75 52 15 0 359 3 359 358 355 353 358 357 354 353 350 349 342 331 323 316 309
159 242 217 222 214 221 283 239 251 207 249 114 61 10 348 330 342 359 328 5 110 105 91 58 18 356 359 3 358 352 351 350 348 348 345 346 347 344 339 336 334 324 313
170 217 212 211 225 233 203 235 228 240 48 54 7 347 326 302 316 282 70 4 22 348 179 57 14 335 357 5 1 353 348 348 349 345 342 340 342 335 331 329 329 329 331
177 216 230 201 190 239 238 45 10 346 78 354 337 313 285 282 304 34 19 1 339 352 335 357 353 321 72 12 360 354 351 356 351 347 352 349 342 334 329 328 326 322 323
181 206 210 108 228 258 23 45 44 47 31 1 330 308 275 341 326 17 3 337 355 328 331 331 342 13 112 346 27 359 359 356 348 351 350 349 342 335 333 329 323 322 318
176 180 227 76 66 70 62 76 136 86 70 6 331 316 346 274 342 359 343 299 342 357 320 353 345 348 340 331 59 19 5 358 348 348 353 343 339 337 336 334 332 328 324
148 169 105 121 124 122 112 94 45 90 44 42 347 286 345 333 358 26 31 357 3 324 354 325 346 337 335 324 359 61 16 355 349 347 348 343 342 340 343 341 338 333 326
138 144 144 137 137 86 96 81 69 39 24 58 13 34 347 331 340 13 298 327 353 338 326 343 8 327 6 317 335 14 13 358 349 340 341 339 340 341 344 344 342 340 332
143 132 125 125 124 138 126 111 75 76 338 346 74 72 324 338 324 323 8 334 335 314 13 349 10 339 347 348 347 70 16 352 349 345 342 343 341 341 346 346 345 343 338
116 137 130 115 117 108 101 107 152 163 125 67 350 354 268 278 225 287 313 329 324 335 330 318 12 298 346 322 335 354 352 351 350 349 343 342 337 340 342 342 343 343 340
119 88 105 108 131 127 124 109 121 94 69 51 13 359 354 338 333 324 307 321 329 322 298 45 304 9 346 353 331 336 339 321 329 334 338 337 340 339 339 340 341 342 343
119 107 112 129 108 100 95 99 76 74 63 62 20 345 309 351 343 314 304 340 325 290 328 17 350 13 348 348 334 355 309 238 297 303 320 319 331 337 341 344 344 343 344
113 123 110 104 116 109 104 118 94 78 63 69 45 22 318 350 345 1 350 331 327 342 345 357 352 5 358 348 12 294 333 221 295 296 300 304 317 329 335 342 347 350 349
132 126 113 102 99 95 98 100 81 72 71 47 72 32 294 40 30 348 339 322 335 340 334 321 325 2 4 333 326 332 331 333 311 290 279 291 306 310 309 335 343 353 5
120 117 113 115 111 102 84 68 127 106 57 44 60 47 355 18 301 257 306 307 277 307 313 316 341 333 352 315 336 328 337 301 302 170 258 289 301 305 297 305 324 341 12
120 116 114 111 101 87 77 73 78 94 84 92 107 81 16 6 1 358 342 332 342 335 321 322 313 340 309 324 325 338 325 312 326 184 309 318 296 282 285 292 270 296 354
109 108 106 98 87 81 83 96 74 77 56 54 53 72 23 14 356 358 332 341 324 321 327 312 323 313 326 332 342 344 323 329 328 310 333 299 284 260 279 292 262 185 305
109 105 101 94 88 93 96 67 56 49 41 48 58 50 40 17 359 347 327 343 329 338 314 326 311 325 325 333 346 332 337 326 322 323 332 315 306 283 283 294 219 189 277
105 98 89 86 86 87 77 57 54 54 12 60 47 28 39 24 4 353 334 358 351 325 329 322 326 322 325 354 344 331 333 328 327 337 318 359 330 317 330 309 162 148 324
99 99 95 85 76 62 33 358 19 8 32 30 43 60 54 38 29 4 352 347 331 328 334 333 326 325 342 344 334 338 327 322 335 349 320 319 313 340 308 34 70 34 12
97 94 86 81 70 62 8 19 1 350 36 40 32 13 105 40 16 314 298 291 285 308 320 328 327 329 336 327 336 332 322 334 323 317 321 338 339 326 308 54 39 34 18
99 92 86 77 64 52 12 6 1 13 57 48 30 17 12 52 20 347 335 306 319 229 252 321 323 335 326 333 328 327 333 324 321 325 346 330 324 327 341 334 43 29 17
101 98 91 81 73 52 18 7 352 354 72 60 37 25 23 31 15 344 321 337 343 334 14 334 324 313 310 317 309 316 323 329 321 327 336 304 336 332 324 317 104 24 7
103 94 86 91 76 50 17 5 344 165 120 123 109 49 44 25 5 346 340 350 341 348 337 307 248 258 260 267 265 298 309 334 322 336 358 342 327 324 318 316 353 351 325
103 101 99 82 79 59 25 12 1 111 100 184 128 117 71 35 353 334 346 358 347 348 332 316 324 334 329 325 248 229 342 329 324 326 357 333 333 343 319 308 336 328 340